When you browse on this site, cookies collect data to enhance your experience and personalize the content and advertising you see.
Visit our Privacy Policy to learn more. By continuing to use the site, you agree to this use of cookies and data.
  • In Hungary
  • List of Countries
  • For 7 days
  • Water Temperature
  • Satellite Maps
  • Weather Map
  • News
  • Weather Widgets
  • user-avatar
    Login

    Hourly Weather Kvitkove

    Today, 20 February, Wednesday

    Time Temperature Precipitation Wind Pressure Humidity
    00:00 +3°C° 0 mm 2 mps 726 mmHg 82%
    01:00 +2°C° 0 mm 2 mps 726 mmHg 83%
    02:00 +2°C° 0 mm 1 mps 726 mmHg 87%
    03:00 +1°C° 0 mm 2 mps 726 mmHg 88%
    04:00 +1°C° 0 mm 2 mps 726 mmHg 88%
    05:00 0°C° 0 mm 3 mps 726 mmHg 88%
    06:00 +1°C° 0.1 mm 3 mps 726 mmHg 90%
    07:00 0°C° 0.1 mm 4 mps 726 mmHg 91%
    08:00 +1°C° 0 mm 5 mps 726 mmHg 93%
    09:00 +1°C° 0 mm 5 mps 727 mmHg 89%
    10:00 +2°C° 0 mm 6 mps 727 mmHg 86%
    11:00 +2°C° 0 mm 6 mps 727 mmHg 82%
    12:00 +2°C° 0.1 mm 6 mps 727 mmHg 79%
    13:00 +3°C° 0.1 mm 6 mps 728 mmHg 75%
    14:00 +3°C° 0 mm 6 mps 728 mmHg 72%
    15:00 +3°C° 0.1 mm 6 mps 728 mmHg 71%
    16:00 +3°C° 0.1 mm 6 mps 728 mmHg 70%
    17:00 +3°C° 0.1 mm 5 mps 728 mmHg 68%
    18:00 +2°C° 0 mm 5 mps 728 mmHg 72%
    19:00 +1°C° 0 mm 5 mps 728 mmHg 75%
    20:00 0°C° 0 mm 5 mps 729 mmHg 79%
    21:00 0°C° 0 mm 5 mps 729 mmHg 79%
    22:00 +1°C° 0 mm 5 mps 729 mmHg 79%
    23:00 +1°C° 0 mm 5 mps 730 mmHg 79%

    Tomorrow, 21 February, Thursday

    Time Temperature Precipitation Wind Pressure Humidity
    00:00 0°C° 0 mm 5 mps 730 mmHg 81%
    01:00 0°C° 0 mm 5 mps 730 mmHg 83%
    02:00 0°C° 0 mm 5 mps 730 mmHg 84%
    03:00 -1°C° 0 mm 6 mps 730 mmHg 85%
    04:00 -1°C° 0 mm 6 mps 731 mmHg 87%
    05:00 -1°C° 0 mm 6 mps 731 mmHg 88%
    06:00 -2°C° 0 mm 6 mps 731 mmHg 88%
    07:00 -2°C° 0 mm 6 mps 731 mmHg 88%
    08:00 -2°C° 0 mm 6 mps 731 mmHg 88%
    09:00 -1°C° 0.1 mm 6 mps 732 mmHg 86%
    10:00 -1°C° 0.1 mm 6 mps 732 mmHg 84%
    11:00 +1°C° 0.1 mm 6 mps 732 mmHg 82%
    12:00 +1°C° 0 mm 6 mps 732 mmHg 81%
    13:00 +2°C° 0 mm 6 mps 731 mmHg 80%
    14:00 +2°C° 0 mm 6 mps 731 mmHg 78%
    15:00 +3°C° 0.1 mm 6 mps 731 mmHg 78%
    16:00 +3°C° 0.1 mm 5 mps 731 mmHg 78%
    17:00 +3°C° 0.1 mm 5 mps 731 mmHg 78%
    18:00 +2°C° 0 mm 5 mps 731 mmHg 79%
    19:00 +3°C° 0 mm 4 mps 730 mmHg 79%
    20:00 +3°C° 0 mm 4 mps 730 mmHg 80%
    21:00 +3°C° 0.2 mm 4 mps 730 mmHg 80%
    22:00 +1°C° 0.2 mm 5 mps 729 mmHg 80%
    23:00 +1°C° 0.2 mm 5 mps 729 mmHg 80%

    Day after tomorrow, 22 February, Friday

    Time Temperature Precipitation Wind Pressure Humidity
    00:00 +1°C° 0.5 mm 5 mps 729 mmHg 81%
    01:00 +1°C° 0.5 mm 5 mps 728 mmHg 81%
    02:00 +1°C° 0.5 mm 5 mps 728 mmHg 82%
    03:00 +1°C° 0.5 mm 5 mps 728 mmHg 83%
    04:00 +1°C° 0.5 mm 5 mps 727 mmHg 85%
    05:00 +1°C° 0.5 mm 5 mps 727 mmHg 86%
    06:00 +1°C° 0.7 mm 5 mps 727 mmHg 88%
    07:00 0°C° 0.7 mm 5 mps 727 mmHg 90%
    08:00 0°C° 0.7 mm 5 mps 727 mmHg 92%
    09:00 -3°C° 0.5 mm 6 mps 728 mmHg 89%
    10:00 -4°C° 0.5 mm 7 mps 729 mmHg 85%
    11:00 -7°C° 0.5 mm 7 mps 730 mmHg 82%
    12:00 -7°C° 0.1 mm 7 mps 731 mmHg 77%
    13:00 -7°C° 0.1 mm 7 mps 732 mmHg 73%
    14:00 -5°C° 0.1 mm 6 mps 733 mmHg 68%
    15:00 -6°C° 0 mm 6 mps 733 mmHg 67%
    16:00 -8°C° 0 mm 6 mps 734 mmHg 65%
    17:00 -8°C° 0 mm 6 mps 735 mmHg 64%
    18:00 -9°C° 0 mm 6 mps 735 mmHg 64%
    19:00 -9°C° 0 mm 6 mps 736 mmHg 64%
    20:00 -10°C° 0 mm 5 mps 737 mmHg 63%
    21:00 -10°C° 0 mm 6 mps 737 mmHg 62%
    22:00 -10°C° 0 mm 6 mps 738 mmHg 60%
    23:00 -10°C° 0 mm 6 mps 739 mmHg 58%

    23 February, Saturday

    Time Temperature Precipitation Wind Pressure Humidity
    00:00 -11°C° 0 mm 6 mps 739 mmHg 58%
    01:00 -11°C° 0 mm 6 mps 739 mmHg 58%
    02:00 -11°C° 0 mm 6 mps 740 mmHg 59%
    03:00 -11°C° 0 mm 6 mps 740 mmHg 59%
    04:00 -11°C° 0 mm 5 mps 740 mmHg 59%
    05:00 -11°C° 0 mm 5 mps 740 mmHg 59%
    06:00 -11°C° 0 mm 5 mps 740 mmHg 60%
    07:00 -11°C° 0 mm 5 mps 741 mmHg 61%
    08:00 -12°C° 0 mm 5 mps 741 mmHg 62%
    09:00 -10°C° 0 mm 4 mps 741 mmHg 60%
    10:00 -10°C° 0 mm 4 mps 742 mmHg 58%
    11:00 -9°C° 0 mm 4 mps 742 mmHg 57%
    12:00 -9°C° 0 mm 4 mps 742 mmHg 55%
    13:00 -8°C° 0 mm 5 mps 742 mmHg 54%
    14:00 -8°C° 0 mm 5 mps 742 mmHg 53%
    15:00 -8°C° 0 mm 5 mps 742 mmHg 54%
    16:00 -8°C° 0 mm 5 mps 742 mmHg 55%
    17:00 -8°C° 0 mm 4 mps 742 mmHg 56%
    18:00 -8°C° 0 mm 4 mps 742 mmHg 59%
    19:00 -8°C° 0 mm 3 mps 742 mmHg 61%
    20:00 -8°C° 0 mm 3 mps 742 mmHg 63%
    21:00 -8°C° 0 mm 3 mps 742 mmHg 64%
    22:00 -7°C° 0 mm 2 mps 743 mmHg 65%
    23:00 -7°C° 0 mm 2 mps 743 mmHg 66%

    24 February, Sunday

    Time Temperature Precipitation Wind Pressure Humidity
    00:00 -7°C° 0 mm 2 mps 742 mmHg 67%
    01:00 -8°C° 0 mm 2 mps 742 mmHg 68%
    02:00 -8°C° 0 mm 2 mps 742 mmHg 70%
    03:00 -8°C° 0 mm 2 mps 742 mmHg 70%
    04:00 -8°C° 0 mm 2 mps 741 mmHg 70%
    05:00 -8°C° 0 mm 2 mps 741 mmHg 71%
    06:00 -8°C° 0 mm 2 mps 741 mmHg 71%
    07:00 -9°C° 0 mm 3 mps 741 mmHg 71%
    08:00 -9°C° 0 mm 3 mps 741 mmHg 70%
    09:00 -8°C° 0 mm 3 mps 741 mmHg 63%
    10:00 -7°C° 0 mm 3 mps 741 mmHg 56%
    11:00 -5°C° 0 mm 4 mps 741 mmHg 48%
    12:00 -4°C° 0 mm 4 mps 740 mmHg 46%
    13:00 -4°C° 0 mm 4 mps 740 mmHg 44%
    14:00 -3°C° 0 mm 4 mps 739 mmHg 42%
    15:00 -3°C° 0 mm 4 mps 739 mmHg 44%
    16:00 -3°C° 0 mm 4 mps 738 mmHg 46%
    17:00 -3°C° 0 mm 4 mps 738 mmHg 48%
    18:00 -3°C° 0 mm 4 mps 738 mmHg 49%
    19:00 -3°C° 0 mm 4 mps 738 mmHg 51%
    20:00 -4°C° 0 mm 5 mps 737 mmHg 52%
    21:00 -4°C° 0 mm 5 mps 737 mmHg 54%
    22:00 -4°C° 0 mm 5 mps 737 mmHg 56%
    23:00 -4°C° 0 mm 6 mps 736 mmHg 58%

    25 February, Monday

    Time Temperature Precipitation Wind Pressure Humidity
    00:00 -4°C° 0.4 mm 6 mps 736 mmHg 66%
    01:00 -4°C° 0.4 mm 6 mps 735 mmHg 74%
    02:00 -4°C° 0.4 mm 6 mps 734 mmHg 82%
    03:00 -4°C° 0.1 mm 7 mps 734 mmHg 83%
    04:00 -3°C° 0.1 mm 7 mps 733 mmHg 83%
    05:00 -4°C° 0.1 mm 8 mps 732 mmHg 84%
    06:00 -4°C° 0.1 mm 8 mps 732 mmHg 85%
    07:00 -2°C° 0.1 mm 8 mps 732 mmHg 87%
    08:00 -3°C° 0.1 mm 9 mps 732 mmHg 88%
    09:00 -3°C° 0.1 mm 9 mps 732 mmHg 85%
    10:00 -3°C° 0.1 mm 9 mps 732 mmHg 82%
    11:00 -3°C° 0.1 mm 9 mps 732 mmHg 79%
    12:00 -3°C° 0.1 mm 9 mps 732 mmHg 79%
    13:00 -2°C° 0.1 mm 8 mps 732 mmHg 79%
    14:00 -2°C° 0.1 mm 8 mps 732 mmHg 79%
    15:00 -2°C° 0.1 mm 8 mps 732 mmHg 75%
    16:00 -2°C° 0.1 mm 7 mps 732 mmHg 72%
    17:00 -2°C° 0.1 mm 7 mps 732 mmHg 68%
    18:00 -2°C° 0 mm 7 mps 732 mmHg 70%
    19:00 -3°C° 0 mm 7 mps 732 mmHg 72%
    20:00 -3°C° 0 mm 7 mps 732 mmHg 74%
    21:00 -4°C° 0 mm 6 mps 733 mmHg 76%
    22:00 -4°C° 0 mm 6 mps 733 mmHg 78%
    23:00 -4°C° 0 mm 6 mps 733 mmHg 79%
    Show more